Weather History for KDNL - October, 2013

Change the Weather History Date:

Sunday, October 27, 2013

  Actual Average Record
Temperature  
Mean Temperature 61 °F -  
Max Temperature 74 °F 71 °F 89 °F (2014)
Min Temperature 48 °F 52 °F 41 °F (2001)
Degree Days  
Heating Degree Days 4    
Month to date heating degree days 52  
Growing Degree Days 10 (Base 50)    
Moisture  
Dew Point 44 °F    
Average Humidity 54    
Maximum Humidity 72    
Minimum Humidity 42    
Precipitation  
Precipitation 0.00 in - - ()
Month to date precipitation 0.87  
Year to date precipitation 51.34  
Sea Level Pressure  
Sea Level Pressure 30.12 in    
Wind  
Wind Speed 4 mph (WNW)    
Max Wind Speed 13 mph    
Max Gust Speed 18 mph    
Visibility 10 miles    
Events      
Averages and records for this station are not official NWS values.
T = Trace of Precipitation, MM = Missing Value Source: NWS Daily Summary

Daily Weather History Graph

Daily Weather History Graph

Search for Another Location

Airport or City:

Trip Planner

Search our weather history database for the weather conditions in past years. The results will help you decide how hot, cold, wet, or windy it might be!

Date:

Astronomy

Oct. 27, 2013 Rise Set
Actual Time 7:42 AM EDT 6:40 PM EDT
Civil Twilight 7:17 AM EDT 7:06 PM EDT
Nautical Twilight 6:48 AM EDT 7:35 PM EDT
Astronomical Twilight 6:19 AM EDT 8:04 PM EDT
Moon 12:58 AM EDT (10/27) 2:30 PM EDT (10/27)
Length of Visible Light 11h 48m
Length of Day
10h 58m
Last Quarter, 44% of the Moon is Illuminated
Oct 27
Last Quarter
Nov 3
New
Nov 10
First Quarter
Nov 17
Full
Nov 25
Last Quarter

Hourly Weather History & Observations

Time (EDT) Temp. Dew Point Humidity Pressure Visibility Wind Dir Wind Speed Gust Speed Precip Events Conditions
12:53 AM 51.1 °F 35.1 °F 54% 30.15 in 10.0 mi Calm Calm - N/A   Clear
1:53 AM 50.0 °F 35.1 °F 57% 30.14 in 10.0 mi Calm Calm - N/A   Clear
2:53 AM 48.9 °F 36.0 °F 61% 30.13 in 10.0 mi Calm Calm - N/A   Clear
3:53 AM 50.0 °F 35.1 °F 57% 30.10 in 10.0 mi WNW 4.6 mph - N/A   Clear
4:53 AM 52.0 °F 34.0 °F 50% 30.09 in 10.0 mi WNW 6.9 mph - N/A   Clear
5:53 AM 52.0 °F 35.1 °F 53% 30.10 in 10.0 mi WNW 4.6 mph - N/A   Clear
6:53 AM 51.1 °F 35.1 °F 54% 30.10 in 10.0 mi West 5.8 mph - N/A   Clear
7:53 AM 50.0 °F 35.1 °F 57% 30.12 in 10.0 mi West 4.6 mph - N/A   Clear
8:53 AM 51.1 °F 37.0 °F 59% 30.14 in 10.0 mi WNW 6.9 mph - N/A   Clear
9:53 AM 55.9 °F 37.9 °F 51% 30.16 in 10.0 mi NNW 4.6 mph - N/A   Clear
10:53 AM 60.1 °F 39.9 °F 47% 30.16 in 10.0 mi Variable 3.5 mph - N/A   Clear
11:53 AM 64.0 °F 42.1 °F 45% 30.15 in 10.0 mi Calm Calm - N/A   Clear
12:53 PM 68.0 °F 45.0 °F 43% 30.14 in 10.0 mi NNW 4.6 mph - N/A   Clear
1:53 PM 71.1 °F 48.9 °F 45% 30.11 in 10.0 mi Variable 6.9 mph - N/A   Clear
2:53 PM 73.0 °F 50.0 °F 44% 30.09 in 10.0 mi WNW 10.4 mph - N/A   Clear
3:53 PM 73.0 °F 51.1 °F 46% 30.09 in 10.0 mi WNW 8.1 mph - N/A   Clear
4:53 PM 72.0 °F 51.1 °F 48% 30.09 in 10.0 mi Variable 3.5 mph - N/A   Clear
5:53 PM 71.1 °F 51.1 °F 49% 30.09 in 10.0 mi Variable 4.6 mph - N/A   Clear
6:53 PM 68.0 °F 51.1 °F 55% 30.10 in 10.0 mi Calm Calm - N/A   Clear
7:53 PM 66.0 °F 51.1 °F 59% 30.11 in 10.0 mi Calm Calm - N/A   Scattered Clouds
8:53 PM 64.9 °F 52.0 °F 63% 30.12 in 10.0 mi Calm Calm - N/A   Clear
9:53 PM 64.0 °F 52.0 °F 65% 30.13 in 10.0 mi Calm Calm - N/A   Clear
10:53 PM 64.0 °F 52.0 °F 65% 30.14 in 10.0 mi West 3.5 mph - N/A   Clear
11:53 PM 63.0 °F 53.1 °F 70% 30.14 in 10.0 mi WNW 3.5 mph - N/A   Clear